sat.trackr.live / text

‹ back to catalog

STARLINK-11640 [DTC]

NORAD 63314 · 2025-057H

PAYLOAD ACTIVE UNKNOWN

§ Identity

Operator
Country
US
Launch date
2025-03-18
Launch site
AFETR
Launch vehicle
Mass (kg)
RCS (m²)

Purposes: comms

External: N2YO · Heavens-Above · Gunter

§ Orbital elements

Epoch: 2026-09-20T14:51:23.442912Z

Period
91.67 min
Inclination
42.9977°
Eccentricity
0.0000493
Mean motion
15.70906196 rev/d
Perigee alt
356.0 km
Apogee alt
356.6 km
Semi-major
6,734.4 km
B*
1.2102e-3
RAAN
169.6782°
Arg perigee
256.5700°
Mean anomaly
103.5113°
Rev number
8,783

§ Raw data

STARLINK-11640 [DTC]1 63314U 25057H   26263.61902133  .00158264  00000+0  12102-2 0  99932 63314  42.9977 169.6782 0000493 256.5700 103.5113 15.70906196 87831

JSON: /api/v1/satellites/63314 · /tle

For live sub-satellite position, see the globe view (requires WebGL).

§ Visibility from observer

Set your observer location to see the next 7 days of passes ≥ 10°. The values pass through the URL so the page stays shareable.

No JS? Fill the form by hand. The geolocation button needs JavaScript.